Regional Weather Roundup
Issued by NWS

Home | Current Version | Previous Version | Graphics & Text | Print | Product List | Glossary On
Versions: 1 2 3 4 5 6 7 8 9 10 11 12 13 14 15 16 17 18 19 20 21 22 23 24 25 26 27 28 29 30 31 32 33 34 35 36 37 38 39 40 41 42 43 44 45 46 47 48 49 50
000
ASUS45 KPSR 012200
RWRAZ

PRELIMINARY ARIZONA REGIONAL HOURLY WEATHER ROUNDUP
NATIONAL WEATHER SERVICE PHOENIX AZ
300 PM MST SUN MAR 01 2015

NOTE: FAIR INDICATES FEW OR NO CLOUDS BELOW 12,000 FEET WITH NO
SIGNIFICANT WEATHER AND/OR OBSTRUCTIONS TO VISIBILITY.

AZZ001>003-036-012300-
NORTHWEST ARIZONA

CITY           SKY/WX    TMP DP  RH WIND       PRES   REMARKS
KINGMAN        RAIN      44  40  85 SE13      29.98R
$$

AZZ004>008-015-016-018-012300-
NORTH CENTRAL ARIZONA

CITY           SKY/WX    TMP DP  RH WIND       PRES   REMARKS
GRAND CANYON   SNOW      33  32  96 CALM      30.00S VSB 1/4
PRESCOTT       CLOUDY    44  40  85 N3        29.98F
FLAGSTAFF      NOT AVBL
PAYSON         LGT RAIN  48  46  93 S5        30.03F
PAGE           LGT RAIN  39  35  86 CALM      30.04S FOG
$$

AZZ009>014-017-012300-
NORTHEAST ARIZONA

CITY           SKY/WX    TMP DP  RH WIND       PRES   REMARKS
WINSLOW        NOT AVBL
SAINT JOHNS    PTSUNNY   62  28  27 SW20G26   29.98S
WINDOW ROCK    CLOUDY    49  39  68 SW15      30.03F
SHOW LOW       MOSUNNY   52  32  46 S30G37    30.04S
$$

AZZ023-012300-
GREATER PHOENIX AREA

CITY           SKY/WX    TMP DP  RH WIND       PRES   REMARKS
PHOENIX        PTSUNNY   77  45  32 S13G20    29.87F
BUCKEYE        PTSUNNY   72  46  40 S15G22    29.89S
GLENDALE       PTSUNNY   72  48  43 CALM      29.90F
DEER VALLEY    CLOUDY    65  52  62 CALM      29.90F
SCOTTSDALE     PTSUNNY   71  45  39 S12G17    29.91F
MESA-GATEWAY   PTSUNNY   72  46  40 S7        29.92F
CHANDLER       PTSUNNY   75  46  35 SW18      29.90F
$$

AZZ027-028-012300-
SOUTHWEST MARICOPA COUNTY AND PINAL COUNTY

CITY           SKY/WX    TMP DP  RH WIND       PRES   REMARKS
CASA GRANDE    CLOUDY    73  45  35 SW14      29.90F
$$

AZZ503-504-507>509-012300-
SOUTHEAST ARIZONA

CITY           SKY/WX    TMP DP  RH WIND       PRES   REMARKS
TUCSON         MOSUNNY   74  40  29 S8G22     29.95F
DAVIS-MONTHAN  SUNNY     75  39  27 SW18G28   29.93F
RYAN FIELD       N/A     75  43  31 SW17G29   29.94F
NOGALES        MOSUNNY   67  38  34 S16G25    30.00S
SIERRA VISTA   MOSUNNY   70  30  22 S21G30    30.01F
SAFFORD        MOSUNNY   76  25  15 S15G21    29.92F
$$

AZZ020-021-025-026-031-012300-
SOUTHWEST ARIZONA

CITY           SKY/WX    TMP DP  RH WIND       PRES   REMARKS
YUMA           CLOUDY    63  47  55 NW10      29.90F
$$

CAZ031-033-041-043-047-048-061-012300-
SOUTHERN CALIFORNIA

CITY           SKY/WX    TMP DP  RH WIND       PRES   REMARKS
DOWNTOWN L.A.  PTSUNNY   62  47  57 SE8       29.89F
L.A. AIRPORT   PTSUNNY   61  47  59 SE13G18   29.88F
SAN DIEGO      LGT RAIN  58  48  69 E10       29.92F
BURBANK        PTSUNNY   62  41  46 SE12      29.88F
ONTARIO        CLOUDY    56  43  61 SE6       29.90F
RIVERSIDE      CLOUDY    56  43  61 E14       29.90F
PALM SPRINGS   LGT RAIN  53  45  74 CALM      29.99F
EL CENTRO NAS  LGT RAIN  56  52  86 NW15      29.95F
IMPERIAL       LGT RAIN  55  53  93 N13       29.94F
BLYTHE         CLOUDY    56  50  80 NW13      29.93F
$$

NVZ020-UTZ003-012300-
SOUTHERN NEVADA-UTAH

CITY           SKY/WX    TMP DP  RH WIND       PRES   REMARKS
LAS VEGAS      NOT AVBL
SALT LAKE CITY PTSUNNY   46  28  49 NW5       30.03F
$$

NMZ009-TXZ055-012300-
NEW MEXICO-WEST TEXAS

CITY           SKY/WX    TMP DP  RH WIND       PRES   REMARKS
ALBUQUERQUE    MOSUNNY   60  37  42 CALM      30.03F
EL PASO        CLOUDY    74  13   9 SW8       30.02F
$$


........................KEY........................
SKY/WX - SKY CONDITION/WEATHER
TMP    - TEMPERATURE IN FAHRENHEIT
DP     - DEW POINT IN FAHRENHEIT
RH     - RELATIVE HUMIDITY IN PERCENT
WIND   - DIRECTION AND SPEED IN MILES PER HOUR (MPH)
VRB    - VARIABLE WIND DIRECTION
PRES   - MEAN SEA LEVEL PRESSURE IN INCHES OF MERCURY
         F - FALLING PRESSURE   R - RISING PRESSURE
         S - STEADY PRESSURE
VSB    - VISIBILITY IN MILES
HX     - HEAT INDEX IN FAHRENHEIT
WCI    - WIND CHILL INDEX IN FAHRENHEIT
TC     - TEMPERATURE IN CELSIUS WHICH IS ALSO KNOWN AS
         TEMPERATURE IN CENTIGRADE
AFB    - AIR FORCE BASE
         LUKE AFB IS LUKE AIR FORCE BASE
         DAVIS-MONTHAN IS DAVIS-MONTHAN AIR FORCE BASE
NAS    - NAVAL AIR STATION
         EL CENTRO NAS IS EL CENTRO NAVAL AIR STATION
N/A    - NOT AVAILABLE


USA.gov is the U.S. government's official web portal to all federal, state and local government web resources and services.